This demonstration page uses our WeatherBlox Daily Observations layout. Learn more.

39.01783, -85.05884

Hourly Observations for September 19, 2020

Temp ( °F °C ) Dew Point ( °F °C ) Humidity (%) Winds ( mph kmh ) Pressure ( in mb ) Visibility ( mi km ) Precip ( " mm )
12:52 am 00:52 Clear 54 12.2 37 2.8 53 53 ENE 14 22 30.29 1026 10 16.0934 0 0
1:52 am 01:52 Clear 53 11.7 37 2.8 55 55 NE 14 22 30.29 1026 10 16.0934 0 0
2:52 am 02:52 Clear 52 11.1 38 3.3 59 59 NE 14 22 30.29 1026 10 16.0934 0 0
3:52 am 03:52 Clear 51 10.6 38 3.3 61 61 NE 13 20 30.29 1026 10 16.0934 0 0
4:52 am 04:52 Clear 50 10 38 3.3 63 63 NE 12 19 30.29 1026 10 16.0934 0 0
5:52 am 05:52 Clear 49 9.4 39 3.9 69 69 NE 13 20 30.29 1026 10 16.0934 0 0
6:52 am 06:52 Clear 48 8.9 39 3.9 71 71 NE 12 19 30.3 1026 10 16.0934 0 0
7:52 am 07:52 Mostly Sunny 47 8.3 39 3.9 74 74 NE 13 20 30.31 1026 10 16.0934 0 0
8:52 am 08:52 Mostly Sunny 51 10.6 38 3.3 61 61 ENE 14 22 30.32 1027 10 16.0934 0 0
9:52 am 09:52 Partly Cloudy 54 12.2 37 2.8 53 53 ENE 14 22 30.33 1027 10 16.0934 0 0
10:52 am 10:52 Partly Cloudy 58 14.4 37 2.8 46 46 ENE 14 22 30.33 1027 10 16.0934 0 0
11:52 am 11:52 Mostly Sunny 61 16.1 37 2.8 41 41 E 12 19 30.34 1028 10 16.0934 0 0
12:52 pm 12:52 Mostly Sunny 63 17.2 35 1.7 35 35 NE 13 20 30.33 1027 10 16.0934 0 0
1:52 pm 13:52 Mostly Sunny 64 17.8 34 1.1 33 33 ENE 7 11 30.32 1027 10 16.0934 0 0
2:52 pm 14:52 Mostly Sunny 66 18.9 35 1.7 32 32 NNE 6 9 30.29 1026 10 16.0934 0 0
3:52 pm 15:52 Mostly Sunny 68 20 33 0.6 27 27 NE 7 11 30.28 1025 10 16.0934 0 0
4:52 pm 16:52 Mostly Sunny 68 20 33 0.6 27 27 E 9 15 30.26 1025 10 16.0934 0 0
5:52 pm 17:52 Mostly Sunny 67 19.4 34 1.1 30 30 E 10 17 30.25 1024 10 16.0934 0 0
6:52 pm 18:52 Mostly Sunny 65 18.3 34 1.1 32 32 E 9 15 30.26 1025 10 16.0934 0 0
7:52 pm 19:52 Mostly Clear 60 15.6 36 2.2 41 41 E 6 9 30.26 1025 10 16.0934 0 0
8:52 pm 20:52 Clear 59 15 36 2.2 42 42 E 7 11 30.27 1025 10 16.0934 0 0
9:52 pm 21:52 Clear 57 13.9 37 2.8 47 47 E 8 13 30.28 1025 10 16.0934 0 0
10:52 pm 22:52 Clear 58 14.4 36 2.2 44 44 ENE 10 17 30.3 1026 10 16.0934 0 0
11:52 pm 23:52 Clear 56 13.3 37 2.8 49 49 ENE 9 15 30.31 1026 10 16.0934 0 0

Powered by AerisWeather